Flag for Canada Weather past 2 weeks in Kitchener, Ontario, Canada

Now
61 °F

Sunny.


Feels Like: 61 °F
Forecast: 50 / 68 °F
Wind: 3 mph from Northeast

Location: Waterloo Well

Current Time: Jul 2, 2015 at 9:46:31 AM

Latest Report: Jul 2, 2015 at 9:00 AM


Visibility: 9 mi

Pressure: 29.99 "Hg

Humidity: 72%

Dew point: 52 °F

Location of KitchenerLocation

Historic Weather in Kitchener — Graph

°F

Kitchener temperature yesterday

Maximum temperature yesterday: 70 °F (at 12:00 PM)
Minimum temperature yesterday: 59 °F (at 1:00 AM)
Average temperature yesterday: 63 °F

Past Weeks' High & Low Weather Summary

 TemperatureHumidityPressure
High81 °F (Jun 22, 2:00 PM)100% (Jun 20, 4:00 AM)30.17 "Hg (Jun 20, 4:00 AM)
Low46 °F (Jun 20, 4:00 AM)37% (Jun 25, 3:00 PM)29.66 "Hg (Jun 23, 5:00 AM)
Average63 °F79%29.92 "Hg
* Reported Jun 17 9:00 AM — Jul 2 9:00 AM, Kitchener, Weather by CustomWeather, © 2015

Note: Actual official high and low records may vary slightly from our data, if they occured in-between our weather recording intervals... More about our weather records

Advertising

Kitchener weather history for previous 24 hours

 ConditionsComfort  
Time TempWeatherWind HumidityBarometerVisibility
9:00 AM
Thu, Jul 2
61 °FSunny.3 mph72%29.99 "Hg9 mi
8:00 AM57 °FSunny.7 mph82%29.99 "Hg9 mi
7:00 AM54 °FSunny.5 mph94%29.98 "Hg7 mi
6:04 AM50 °FFog.5 mph100%29.97 "Hg3 mi
6:01 AM50 °FFog.5 mph100%29.97 "Hg1 mi
5:04 AM52 °FFog.No wind100%29.95 "Hg1 mi
4:54 AM52 °FLight rain. Fog.3 mph100%29.95 "Hg1 mi
4:00 AM54 °FPartly cloudy.5 mph94%29.95 "Hg9 mi
3:59 AM54 °FPartly cloudy.5 mph94%29.95 "Hg9 mi
3:00 AM55 °FOvercast.5 mph94%29.96 "Hg9 mi
2:00 AM54 °FPassing clouds.2 mph94%29.95 "Hg9 mi
1:00 AM55 °FClear.7 mph94%29.95 "Hg9 mi
12:00 AM57 °FPassing clouds.6 mph88%29.95 "Hg9 mi
11:00 PM
Wed, Jul 1
59 °FOvercast.7 mph88%29.95 "Hg9 mi
10:00 PM61 °FOvercast.6 mph77%29.92 "Hg9 mi
9:00 PM61 °FOvercast.8 mph83%29.91 "Hg9 mi
8:00 PM63 °FPassing clouds.10 mph77%29.89 "Hg9 mi
7:00 PM64 °FPartly sunny.10 mph78%29.88 "Hg9 mi
6:00 PM64 °FOvercast.13 mph78%29.87 "Hg6 mi
5:00 PM66 °FMore clouds than sun.14 mph73%29.87 "Hg8 mi
4:00 PM68 °FBroken clouds.12 mph69%29.86 "Hg8 mi
3:00 PM68 °FBroken clouds.17 mph73%29.84 "Hg9 mi
2:46 PM70 °FBroken clouds.16 mph69%29.84 "Hg9 mi
2:00 PM70 °FBroken clouds.16 mph69%29.83 "Hg9 mi
1:56 PM70 °FCloudy.16 mph69%29.83 "Hg9 mi
1:00 PM68 °FCloudy.14 mph73%29.82 "Hg9 mi
12:00 PM70 °FBroken clouds.15 mph69%29.81 "Hg9 mi
11:00 AM66 °FMostly cloudy.10 mph78%29.79 "Hg9 mi
10:52 AM66 °FMostly cloudy.12 mph78%29.79 "Hg9 mi
10:00 AM66 °FPartly sunny.14 mph78%29.78 "Hg9 mi
9:00 AM63 °FMostly cloudy.8 mph88%29.78 "Hg9 mi
Weather by CustomWeather, © 2015

See weather overviewHow to use our weather pages